This is the latest recevied weather packets stored in our database for station/object N4AN. If no packets are shown the sender has not sent any weather packets the latest 10 day(s).
| Time | Temp. | Humidity | Pressure | Rain* | Wind** | Luminosity | Snow |
|---|---|---|---|---|---|---|---|
| 1777481600 | 29.44° C | 69% | 1011.3 hPa | 0 mm | - | - | - |
| 1777481299 | 29.44° C | 68% | 1011.3 hPa | 0 mm | - | - | - |
| 1777480916 | 29.44° C | 67% | 1011.4 hPa | 0 mm | - | - | - |
| 1777480615 | 30° C | 67% | 1011.2 hPa | 0 mm | - | - | - |
| 1777480315 | 30° C | 67% | 1011.3 hPa | 0 mm | - | - | - |
| 1777480011 | 30.56° C | 66% | 1011.4 hPa | 0 mm | - | - | - |
| 1777479825 | 30° C | 66% | 1011.5 hPa | 0 mm | - | - | - |
| 1777479337 | 30.56° C | 65% | 1011.5 hPa | 0 mm | - | - | - |
| 1777478749 | 29.44° C | 67% | 1011.6 hPa | 0 mm | - | - | - |
| 1777478449 | 29.44° C | 67% | 1011.7 hPa | 0 mm | - | - | - |
| 1777478135 | 30° C | 68% | 1011.7 hPa | 0 mm | - | - | - |
| 1777477534 | 28.89° C | 69% | 1011.7 hPa | 0 mm | - | - | - |
| 1777477233 | 28.89° C | 69% | 1011.7 hPa | 0 mm | - | - | - |
| 1777476933 | 28.33° C | 71% | 1011.7 hPa | 0 mm | - | - | - |
| 1777476627 | 27.22° C | 72% | 1011.5 hPa | 0 mm | - | - | - |
| 1777476325 | 27.78° C | 71% | 1011.5 hPa | 0 mm | - | - | - |
| 1777476023 | 27.78° C | 70% | 1011.6 hPa | 0 mm | - | - | - |
| 1777475723 | 27.78° C | 69% | 1011.7 hPa | 0 mm | - | - | - |
| 1777475421 | 28.33° C | 67% | 1011.6 hPa | 0 mm | - | - | - |
| 1777475121 | 28.89° C | 66% | 1011.6 hPa | 0 mm | - | - | - |
| 1777474816 | 29.44° C | 66% | 1011.6 hPa | 0 mm | - | - | - |
| 1777474516 | 29.44° C | 65% | 1011.6 hPa | 0 mm | - | - | - |
| 1777474215 | 28.89° C | 65% | 1011.5 hPa | 0 mm | - | - | - |
| 1777473915 | 28.89° C | 65% | 1011.5 hPa | 0 mm | - | - | - |
| 1777473314 | 28.33° C | 66% | 1011.5 hPa | 0 mm | - | - | - |
* Rain latest hour (hover to see other rain measurements)
** Current wind speed in m/s (hover to see current wind gust speed)